TimeCST,TemperatureF,Dew PointF,Humidity,Sea Level PressureIn,VisibilityMPH,Wind Direction,Wind SpeedMPH,Gust SpeedMPH,PrecipitationIn,Events,Conditions,WindDirDegrees,DateUTC
12:56 AM,28.0,21.0,75,29.73,10.0,NNE,12.7,21.9,N/A,,Overcast,30,2013-02-27 06:56:00
1:56 AM,29.1,21.0,72,29.73,10.0,Calm,Calm,-,N/A,,Overcast,0,2013-02-27 07:56:00
2:29 AM,28.4,21.2,74,29.70,2.5,NNE,4.6,-,0.00,Snow,Light Snow,20,2013-02-27 08:29:00
2:43 AM,28.4,23.0,80,29.69,3.0,NNE,8.1,-,0.00,Snow,Light Snow,20,2013-02-27 08:43:00
2:56 AM,28.4,23.0,80,29.69,2.0,NNE,10.4,18.4,N/A,Snow,Light Snow,20,2013-02-27 08:56:00
3:36 AM,26.6,24.8,93,29.68,3.0,North,3.5,-,0.00,Snow,Light Snow,10,2013-02-27 09:36:00
3:46 AM,26.6,24.8,93,29.68,1.8,Calm,Calm,-,0.00,Snow,Light Snow,0,2013-02-27 09:46:00
3:56 AM,27.1,24.1,88,29.70,1.5,North,8.1,-,0.00,Snow,Light Snow,10,2013-02-27 09:56:00
4:09 AM,26.6,24.8,93,29.68,1.2,Calm,Calm,-,0.00,Snow,Light Snow,0,2013-02-27 10:09:00
4:18 AM,26.6,24.8,93,29.68,1.5,Calm,Calm,-,0.00,Snow,Light Snow,0,2013-02-27 10:18:00
4:43 AM,26.6,24.8,93,29.68,1.2,Calm,Calm,-,0.00,Snow,Light Snow,0,2013-02-27 10:43:00
4:56 AM,27.1,25.2,92,29.70,1.0,Calm,Calm,-,0.00,Snow,Light Snow,0,2013-02-27 10:56:00
5:03 AM,26.6,24.8,93,29.68,1.2,Calm,Calm,-,0.00,Snow,Light Snow,0,2013-02-27 11:03:00
5:22 AM,26.6,24.8,93,29.68,1.5,Calm,Calm,-,0.00,Snow,Light Snow,0,2013-02-27 11:22:00
5:36 AM,26.6,24.8,93,29.68,2.0,Calm,Calm,-,0.00,Snow,Light Snow,0,2013-02-27 11:36:00
5:56 AM,26.6,24.8,93,29.68,2.5,Calm,Calm,-,N/A,Snow,Light Snow,0,2013-02-27 11:56:00
6:05 AM,26.6,24.8,93,29.67,3.0,North,3.5,-,0.00,Snow,Light Snow,10,2013-02-27 12:05:00
6:56 AM,28.0,24.1,85,29.70,5.0,Calm,Calm,-,0.00,Snow,Light Snow,0,2013-02-27 12:56:00
7:56 AM,29.1,24.1,81,29.70,10.0,NNE,9.2,17.3,0.00,,Overcast,20,2013-02-27 13:56:00
8:28 AM,28.4,24.8,86,29.69,3.0,Calm,Calm,-,0.00,,Overcast,0,2013-02-27 14:28:00
8:56 AM,30.2,24.8,80,29.69,10.0,NNE,3.5,-,N/A,,Overcast,20,2013-02-27 14:56:00
9:56 AM,31.1,24.1,75,29.71,10.0,Calm,Calm,-,0.00,,Overcast,0,2013-02-27 15:56:00
10:56 AM,31.1,24.1,75,29.71,10.0,NNE,10.4,-,N/A,,Overcast,20,2013-02-27 16:56:00
11:56 AM,30.2,24.8,80,29.69,10.0,NNE,6.9,17.3,N/A,,Overcast,20,2013-02-27 17:56:00
12:56 PM,31.1,26.1,82,29.71,10.0,North,9.2,-,0.00,,Overcast,360,2013-02-27 18:56:00
1:27 PM,32.0,26.6,80,29.68,3.0,North,10.4,17.3,0.00,Snow,Light Snow,10,2013-02-27 19:27:00
1:56 PM,32.0,27.1,82,29.71,2.0,NNE,8.1,-,0.00,Snow,Light Snow,20,2013-02-27 19:56:00
2:12 PM,32.0,26.6,80,29.69,3.0,North,6.9,-,0.00,,Overcast,360,2013-02-27 20:12:00
2:56 PM,32.0,26.6,80,29.70,10.0,North,4.6,-,N/A,,Overcast,360,2013-02-27 20:56:00
3:56 PM,32.0,27.1,82,29.74,5.0,North,8.1,-,0.00,,Overcast,360,2013-02-27 21:56:00
4:13 PM,30.2,28.4,93,29.72,2.5,Calm,Calm,-,0.00,,Overcast,0,2013-02-27 22:13:00
4:17 PM,30.2,28.4,93,29.72,3.0,Calm,Calm,-,0.00,,Overcast,0,2013-02-27 22:17:00
4:41 PM,30.2,28.4,93,29.73,2.5,North,4.6,-,0.00,,Overcast,360,2013-02-27 22:41:00
4:47 PM,30.2,28.4,93,29.73,5.0,North,5.8,-,0.00,,Overcast,360,2013-02-27 22:47:00
4:56 PM,31.1,27.1,85,29.76,10.0,North,5.8,-,0.00,,Overcast,360,2013-02-27 22:56:00
5:43 PM,30.2,26.6,86,29.75,10.0,North,4.6,-,0.00,,Overcast,350,2013-02-27 23:43:00
5:56 PM,30.2,26.6,86,29.76,8.0,Calm,Calm,-,N/A,,Overcast,0,2013-02-27 23:56:00
6:08 PM,30.2,28.4,93,29.76,4.0,North,5.8,-,0.00,Snow,Light Snow,360,2013-02-28 00:08:00
6:15 PM,30.2,28.4,93,29.76,2.0,NNW,5.8,-,0.00,Snow,Light Snow,340,2013-02-28 00:15:00
6:25 PM,30.2,28.4,93,29.77,2.0,NNW,5.8,-,0.00,Snow,Light Snow,340,2013-02-28 00:25:00
6:46 PM,30.2,28.4,93,29.77,2.5,Calm,Calm,-,0.00,Snow,Light Snow,0,2013-02-28 00:46:00
6:56 PM,31.1,29.1,92,29.80,5.0,North,5.8,-,0.00,Snow,Light Snow,350,2013-02-28 00:56:00
7:26 PM,30.2,28.4,93,29.78,6.0,North,5.8,-,0.00,Snow,Light Snow,350,2013-02-28 01:26:00
8:56 PM,31.1,26.1,82,29.82,10.0,North,8.1,-,0.00,,Overcast,360,2013-02-28 02:56:00
9:56 PM,31.1,26.1,82,29.83,10.0,North,8.1,-,0.00,,Overcast,350,2013-02-28 03:56:00
10:56 PM,31.1,27.1,85,29.84,7.0,North,9.2,-,0.00,,Overcast,350,2013-02-28 04:56:00